Time,TemperatureF,DewpointF,PressureIn,WindDirection,WindDirectionDegrees,WindSpeedMPH,WindSpeedGustMPH,Humidity,HourlyPrecipIn,Conditions,Clouds,dailyrainin,SoftwareType,DateUTC
2013-03-20 00:00:00,43.7,20.4,29.09,WNW,300,0.0,0.0,39,0.00,,SKC,0.12,VWS V14.00,2013-03-20 04:00:00,
2013-03-20 00:05:00,43.7,20.4,29.09,WNW,300,0.0,0.0,39,0.00,,SKC,0.00,VWS V14.00,2013-03-20 04:05:00,
2013-03-20 00:10:00,43.7,20.4,29.09,WNW,300,0.0,0.0,39,0.00,,SKC,0.00,VWS V14.00,2013-03-20 04:10:00,
2013-03-20 00:20:00,43.7,20.4,29.09,WNW,300,0.0,0.0,39,0.00,,SKC,0.00,VWS V14.00,2013-03-20 04:20:00,
2013-03-20 00:30:00,43.7,20.4,29.09,NNE,30,0.0,3.1,39,0.00,,SKC,0.00,VWS V14.00,2013-03-20 04:30:00,
2013-03-20 00:35:00,43.9,20.5,29.09,NNE,29,0.0,0.0,39,0.00,,SKC,0.00,VWS V14.00,2013-03-20 04:35:00,
2013-03-20 00:40:00,43.9,20.5,29.09,NNE,13,0.0,3.6,39,0.00,,SKC,0.00,VWS V14.00,2013-03-20 04:40:00,
2013-03-20 00:45:00,44.1,20.7,29.09,NNE,13,0.0,0.0,39,0.00,,SKC,0.00,VWS V14.00,2013-03-20 04:45:00,
2013-03-20 00:50:00,44.1,20.7,29.09,NNE,12,0.0,0.0,39,0.00,,SKC,0.00,VWS V14.00,2013-03-20 04:50:00,
2013-03-20 00:55:00,44.1,20.1,29.09,NNE,31,0.0,3.1,38,0.00,,SKC,0.00,VWS V14.00,2013-03-20 04:55:00,
2013-03-20 01:00:00,44.2,20.3,29.09,NE,35,0.0,3.1,38,0.00,,SKC,0.00,VWS V14.00,2013-03-20 05:00:00,
2013-03-20 01:05:00,44.2,20.3,29.06,NE,37,0.0,0.0,38,0.00,,SKC,0.00,VWS V14.00,2013-03-20 05:05:00,
2013-03-20 01:10:00,44.1,20.1,29.06,NE,37,0.0,0.0,38,0.00,,SKC,0.00,VWS V14.00,2013-03-20 05:10:00,
2013-03-20 01:15:00,44.1,20.1,29.06,NE,37,0.0,0.0,38,0.00,,SKC,0.00,VWS V14.00,2013-03-20 05:15:00,
2013-03-20 01:20:00,43.9,19.9,29.06,NE,37,0.0,0.0,38,0.00,,SKC,0.00,VWS V14.00,2013-03-20 05:20:00,
2013-03-20 01:25:00,43.7,19.8,29.06,NE,37,0.0,0.0,38,0.00,,SKC,0.00,VWS V14.00,2013-03-20 05:25:00,
2013-03-20 01:30:00,43.7,19.8,29.06,NE,37,0.0,0.0,38,0.00,,SKC,0.00,VWS V14.00,2013-03-20 05:30:00,
2013-03-20 01:35:00,43.7,19.8,29.06,NE,37,0.0,0.0,38,0.00,,SKC,0.00,VWS V14.00,2013-03-20 05:35:00,
2013-03-20 01:40:00,43.7,19.8,29.06,NE,37,0.0,0.0,38,0.00,,SKC,0.00,VWS V14.00,2013-03-20 05:40:00,
2013-03-20 01:45:00,43.5,19.6,29.06,NE,37,0.0,0.0,38,0.00,,SKC,0.00,VWS V14.00,2013-03-20 05:45:00,
2013-03-20 01:50:00,43.3,19.5,29.06,NE,37,0.0,0.0,38,0.00,,SKC,0.00,VWS V14.00,2013-03-20 05:50:00,
2013-03-20 01:55:00,43.0,19.1,29.06,NE,37,0.0,0.0,38,0.00,,SKC,0.00,VWS V14.00,2013-03-20 05:55:00,
2013-03-20 02:00:00,43.0,19.1,29.06,NE,37,0.0,0.0,38,0.00,,SKC,0.00,VWS V14.00,2013-03-20 06:00:00,
2013-03-20 02:05:00,42.8,19.0,29.06,NNE,28,0.0,0.0,38,0.00,,SKC,0.00,VWS V14.00,2013-03-20 06:05:00,
2013-03-20 02:10:00,42.8,19.0,29.06,NNE,30,0.0,0.0,38,0.00,,SKC,0.00,VWS V14.00,2013-03-20 06:10:00,
2013-03-20 02:15:00,42.6,18.8,29.06,NNE,29,0.0,0.0,38,0.00,,SKC,0.00,VWS V14.00,2013-03-20 06:15:00,
2013-03-20 02:20:00,42.4,19.2,29.06,NNE,29,0.0,0.0,39,0.00,,SKC,0.00,VWS V14.00,2013-03-20 06:20:00,
2013-03-20 02:25:00,42.3,19.1,29.06,NNE,29,0.0,0.0,39,0.00,,SKC,0.00,VWS V14.00,2013-03-20 06:25:00,
2013-03-20 02:30:00,42.1,18.9,29.06,NNE,30,0.0,0.0,39,0.00,,SKC,0.00,VWS V14.00,2013-03-20 06:30:00,
2013-03-20 02:35:00,42.1,18.9,29.06,NNE,30,0.0,0.0,39,0.00,,SKC,0.00,VWS V14.00,2013-03-20 06:35:00,
2013-03-20 02:40:00,41.9,18.8,29.06,NNE,30,0.0,0.0,39,0.00,,SKC,0.00,VWS V14.00,2013-03-20 06:40:00,
2013-03-20 02:45:00,41.7,18.6,29.06,NNE,30,0.0,0.0,39,0.00,,SKC,0.00,VWS V14.00,2013-03-20 06:45:00,
2013-03-20 02:50:00,41.5,18.4,29.06,NNE,30,0.0,0.0,39,0.00,,SKC,0.00,VWS V14.00,2013-03-20 06:50:00,
2013-03-20 02:55:00,41.4,18.3,29.06,NNE,29,0.0,0.0,39,0.00,,SKC,0.00,VWS V14.00,2013-03-20 06:55:00,
2013-03-20 03:00:00,41.4,18.9,29.06,NNE,29,0.0,0.0,40,0.00,,SKC,0.00,VWS V14.00,2013-03-20 07:00:00,
2013-03-20 03:05:00,41.2,18.7,29.06,NNE,29,0.0,0.0,40,0.00,,SKC,0.00,VWS V14.00,2013-03-20 07:05:00,
2013-03-20 03:10:00,41.2,18.7,29.06,NNE,30,0.0,0.0,40,0.00,,SKC,0.00,VWS V14.00,2013-03-20 07:10:00,
2013-03-20 03:15:00,41.0,18.5,29.06,NNE,30,0.0,0.0,40,0.00,,SKC,0.00,VWS V14.00,2013-03-20 07:15:00,
2013-03-20 03:20:00,41.0,18.5,29.06,NNE,30,0.0,0.0,40,0.00,,SKC,0.00,VWS V14.00,2013-03-20 07:20:00,
2013-03-20 03:25:00,40.8,19.0,29.06,NNE,30,0.0,0.0,41,0.00,,SKC,0.00,VWS V14.00,2013-03-20 07:25:00,
2013-03-20 03:30:00,40.6,18.8,29.06,NNE,30,0.0,0.0,41,0.00,,SKC,0.00,VWS V14.00,2013-03-20 07:30:00,
2013-03-20 03:35:00,40.5,18.6,29.06,NNE,30,0.0,0.0,41,0.00,,SKC,0.00,VWS V14.00,2013-03-20 07:35:00,
2013-03-20 03:40:00,40.5,18.6,29.06,NNE,29,0.0,0.0,41,0.00,,SKC,0.00,VWS V14.00,2013-03-20 07:40:00,
2013-03-20 03:45:00,40.3,18.5,29.06,NNE,29,0.0,0.0,41,0.00,,SKC,0.00,VWS V14.00,2013-03-20 07:45:00,
2013-03-20 03:50:00,40.1,18.9,29.06,NNE,30,0.0,0.0,42,0.00,,SKC,0.00,VWS V14.00,2013-03-20 07:50:00,
2013-03-20 03:55:00,39.9,18.7,29.06,NNE,29,0.0,0.0,42,0.00,,SKC,0.00,VWS V14.00,2013-03-20 07:55:00,
2013-03-20 04:00:00,39.7,18.5,29.06,NNE,30,0.0,0.0,42,0.00,,SKC,0.00,VWS V14.00,2013-03-20 08:00:00,
2013-03-20 04:05:00,39.7,18.5,29.06,NNE,30,0.0,0.0,42,0.00,,SKC,0.00,VWS V14.00,2013-03-20 08:05:00,
2013-03-20 04:10:00,39.6,18.4,29.06,NE,43,0.0,0.0,42,0.00,,SKC,0.00,VWS V14.00,2013-03-20 08:10:00,
2013-03-20 04:15:00,39.4,18.2,29.06,NE,43,0.0,0.0,42,0.00,,SKC,0.00,VWS V14.00,2013-03-20 08:15:00,
2013-03-20 04:20:00,39.4,18.2,29.06,NE,43,0.0,0.0,42,0.00,,SKC,0.00,VWS V14.00,2013-03-20 08:20:00,
2013-03-20 04:25:00,39.2,18.6,29.06,NE,43,0.0,0.0,43,0.00,,SKC,0.00,VWS V14.00,2013-03-20 08:25:00,
2013-03-20 04:30:00,39.2,18.6,29.06,NE,43,0.0,0.0,43,0.00,,SKC,0.00,VWS V14.00,2013-03-20 08:30:00,
2013-03-20 04:35:00,39.0,18.4,29.06,NE,43,0.0,0.0,43,0.00,,SKC,0.00,VWS V14.00,2013-03-20 08:35:00,
2013-03-20 04:40:00,38.8,18.8,29.06,NE,43,0.0,0.0,44,0.00,,SKC,0.00,VWS V14.00,2013-03-20 08:40:00,
2013-03-20 04:45:00,38.7,18.6,29.06,NE,43,0.0,0.0,44,0.00,,SKC,0.00,VWS V14.00,2013-03-20 08:45:00,
2013-03-20 04:50:00,38.3,18.3,29.06,NE,42,0.0,0.0,44,0.00,,SKC,0.00,VWS V14.00,2013-03-20 08:50:00,
2013-03-20 04:55:00,38.1,17.6,29.06,NE,42,0.0,0.0,43,0.00,,SKC,0.00,VWS V14.00,2013-03-20 08:55:00,
2013-03-20 05:00:00,37.9,17.5,29.06,NE,35,0.0,0.0,43,0.00,,SKC,0.00,VWS V14.00,2013-03-20 09:00:00,
2013-03-20 05:05:00,37.9,16.9,29.06,NE,34,0.0,0.0,42,0.00,,SKC,0.00,VWS V14.00,2013-03-20 09:05:00,
2013-03-20 05:10:00,37.9,16.9,29.06,NNW,327,0.0,0.0,42,0.00,,SKC,0.00,VWS V14.00,2013-03-20 09:10:00,
2013-03-20 05:15:00,37.9,16.4,29.06,NNE,31,0.0,0.0,41,0.00,,SKC,0.00,VWS V14.00,2013-03-20 09:15:00,
2013-03-20 05:20:00,37.9,16.4,29.06,NNE,30,0.0,0.0,41,0.00,,SKC,0.00,VWS V14.00,2013-03-20 09:20:00,
2013-03-20 05:25:00,37.9,16.4,29.06,NNE,30,0.0,0.0,41,0.00,,SKC,0.00,VWS V14.00,2013-03-20 09:25:00,
2013-03-20 05:30:00,37.6,16.6,29.06,NNE,30,0.0,0.0,42,0.00,,SKC,0.00,VWS V14.00,2013-03-20 09:30:00,
2013-03-20 05:35:00,37.4,16.4,29.06,NNE,30,0.0,0.0,42,0.00,,SKC,0.00,VWS V14.00,2013-03-20 09:35:00,
2013-03-20 05:40:00,37.2,16.3,29.06,NNE,30,0.0,0.0,42,0.00,,SKC,0.00,VWS V14.00,2013-03-20 09:40:00,
2013-03-20 05:45:00,36.9,15.9,29.06,NNE,30,0.0,0.0,42,0.00,,SKC,0.00,VWS V14.00,2013-03-20 09:45:00,
2013-03-20 05:50:00,36.7,15.8,29.06,NNE,30,0.0,0.0,42,0.00,,SKC,0.00,VWS V14.00,2013-03-20 09:50:00,
2013-03-20 05:55:00,36.5,15.6,29.06,NNE,30,0.0,0.0,42,0.00,,SKC,0.00,VWS V14.00,2013-03-20 09:55:00,
2013-03-20 06:00:00,36.5,15.6,29.06,NNE,30,0.0,0.0,42,0.00,,SKC,0.00,VWS V14.00,2013-03-20 10:00:00,
2013-03-20 06:05:00,36.3,16.0,29.06,NNE,30,0.0,0.0,43,0.00,,SKC,0.00,VWS V14.00,2013-03-20 10:05:00,
2013-03-20 06:10:00,36.3,16.0,29.06,NNE,30,0.0,0.0,43,0.00,,SKC,0.00,VWS V14.00,2013-03-20 10:10:00,
2013-03-20 06:15:00,36.1,15.8,29.06,NNE,30,0.0,0.0,43,0.00,,SKC,0.00,VWS V14.00,2013-03-20 10:15:00,
2013-03-20 06:20:00,35.8,15.5,29.06,NNE,30,0.0,0.0,43,0.00,,SKC,0.00,VWS V14.00,2013-03-20 10:20:00,
2013-03-20 06:26:00,35.4,15.2,29.06,NNE,30,0.0,0.0,43,0.00,,SKC,0.00,VWS V14.00,2013-03-20 10:26:00,
2013-03-20 06:31:00,35.2,15.5,29.06,NNE,30,0.0,0.0,44,0.00,,SKC,0.00,VWS V14.00,2013-03-20 10:31:00,
2013-03-20 06:36:00,35.1,15.4,29.06,NNE,30,0.0,0.0,44,0.00,,SKC,0.00,VWS V14.00,2013-03-20 10:36:00,
2013-03-20 06:41:00,35.1,15.4,29.06,NNE,30,0.0,0.0,44,0.00,,SKC,0.00,VWS V14.00,2013-03-20 10:41:00,
2013-03-20 06:46:00,35.1,15.4,29.06,NNE,30,0.0,0.0,44,0.00,,SKC,0.00,VWS V14.00,2013-03-20 10:46:00,
2013-03-20 06:51:00,35.1,15.9,29.06,NNE,30,0.0,0.0,45,0.00,,SKC,0.00,VWS V14.00,2013-03-20 10:51:00,
2013-03-20 06:56:00,34.9,15.7,29.06,NNE,30,0.0,0.0,45,0.00,,SKC,0.00,VWS V14.00,2013-03-20 10:56:00,
2013-03-20 07:01:00,34.9,15.7,29.06,NNE,30,0.0,0.0,45,0.00,,SKC,0.00,VWS V14.00,2013-03-20 11:01:00,
2013-03-20 07:06:00,34.7,15.6,29.06,NNE,30,0.0,0.0,45,0.00,,SKC,0.00,VWS V14.00,2013-03-20 11:06:00,
2013-03-20 07:11:00,34.7,16.0,29.06,NNE,30,0.0,0.0,46,0.00,,SKC,0.00,VWS V14.00,2013-03-20 11:11:00,
2013-03-20 07:16:00,34.5,15.9,29.06,NNE,30,0.0,0.0,46,0.00,,SKC,0.00,VWS V14.00,2013-03-20 11:16:00,
2013-03-20 07:21:00,34.5,15.9,29.06,NNE,30,0.0,0.0,46,0.00,,SKC,0.00,VWS V14.00,2013-03-20 11:21:00,
2013-03-20 07:26:00,34.3,15.7,29.06,NNE,30,0.0,0.0,46,0.00,,SKC,0.00,VWS V14.00,2013-03-20 11:26:00,
2013-03-20 07:31:00,34.2,15.6,29.06,NNE,30,0.0,0.0,46,0.00,,SKC,0.00,VWS V14.00,2013-03-20 11:31:00,
2013-03-20 07:36:00,34.0,15.9,29.09,NNE,30,0.0,0.0,47,0.00,,SKC,0.00,VWS V14.00,2013-03-20 11:36:00,
2013-03-20 07:41:00,34.0,15.9,29.09,NNE,30,0.0,0.0,47,0.00,,SKC,0.00,VWS V14.00,2013-03-20 11:41:00,
2013-03-20 07:46:00,34.0,15.9,29.09,NNE,30,0.0,0.0,47,0.00,,SKC,0.00,VWS V14.00,2013-03-20 11:46:00,
2013-03-20 07:56:00,33.8,15.7,29.09,NNE,30,0.0,0.0,47,0.00,,SKC,0.00,VWS V14.00,2013-03-20 11:56:00,
2013-03-20 08:06:00,33.8,16.2,29.09,NNE,30,0.0,0.0,48,0.00,,SKC,0.00,VWS V14.00,2013-03-20 12:06:00,
2013-03-20 08:11:00,33.6,16.5,29.09,NNE,30,0.0,0.0,49,0.00,,SKC,0.00,VWS V14.00,2013-03-20 12:11:00,
2013-03-20 08:16:00,33.6,16.5,29.09,NNE,30,0.0,0.0,49,0.00,,SKC,0.00,VWS V14.00,2013-03-20 12:16:00,
2013-03-20 08:21:00,33.6,16.5,29.06,NNE,30,0.0,0.0,49,0.00,,SKC,0.00,VWS V14.00,2013-03-20 12:21:00,
2013-03-20 08:26:00,33.6,16.5,29.06,NNE,30,0.0,0.0,49,0.00,,SKC,0.00,VWS V14.00,2013-03-20 12:26:00,
2013-03-20 08:31:00,33.6,17.0,29.06,NNE,30,0.0,0.0,50,0.00,,SKC,0.00,VWS V14.00,2013-03-20 12:31:00,
2013-03-20 08:36:00,33.6,17.0,29.09,NNE,30,0.0,0.0,50,0.00,,SKC,0.00,VWS V14.00,2013-03-20 12:36:00,
2013-03-20 08:41:00,33.8,17.1,29.09,NNE,30,0.0,0.0,50,0.00,,SKC,0.00,VWS V14.00,2013-03-20 12:41:00,
2013-03-20 08:46:00,33.8,17.1,29.09,NNE,30,0.0,0.0,50,0.00,,SKC,0.00,VWS V14.00,2013-03-20 12:46:00,
2013-03-20 08:51:00,33.8,17.1,29.06,NNE,31,0.0,0.0,50,0.00,,SKC,0.00,VWS V14.00,2013-03-20 12:51:00,
2013-03-20 08:56:00,34.0,17.3,29.06,NE,45,0.0,0.0,50,0.00,,SKC,0.00,VWS V14.00,2013-03-20 12:56:00,
2013-03-20 09:01:00,34.2,17.9,29.09,ENE,66,0.0,0.0,51,0.00,,SKC,0.00,VWS V14.00,2013-03-20 13:01:00,
2013-03-20 09:06:00,34.3,18.1,29.09,ENE,67,0.0,0.0,51,0.00,,SKC,0.00,VWS V14.00,2013-03-20 13:06:00,
2013-03-20 09:11:00,34.5,18.3,29.09,ENE,67,0.0,0.0,51,0.00,,SKC,0.00,VWS V14.00,2013-03-20 13:11:00,
2013-03-20 09:17:00,34.9,18.6,29.09,ENE,66,0.0,0.0,51,0.00,,SKC,0.00,VWS V14.00,2013-03-20 13:17:00,
2013-03-20 09:22:00,35.2,18.9,29.06,ENE,67,0.0,0.0,51,0.00,,SKC,0.00,VWS V14.00,2013-03-20 13:22:00,
2013-03-20 09:27:00,36.0,19.1,29.06,ENE,66,0.0,0.0,50,0.00,,SKC,0.00,VWS V14.00,2013-03-20 13:27:00,
2013-03-20 09:32:00,36.7,19.8,29.06,ENE,67,0.0,0.0,50,0.00,,SKC,0.00,VWS V14.00,2013-03-20 13:32:00,
2013-03-20 09:37:00,37.0,20.1,29.09,ENE,66,0.0,0.0,50,0.00,,SKC,0.00,VWS V14.00,2013-03-20 13:37:00,
2013-03-20 09:42:00,37.4,20.0,29.09,ENE,66,0.0,0.0,49,0.00,,SKC,0.00,VWS V14.00,2013-03-20 13:42:00,
2013-03-20 09:47:00,37.9,20.5,29.09,ENE,66,0.0,0.0,49,0.00,,SKC,0.00,VWS V14.00,2013-03-20 13:47:00,
2013-03-20 09:52:00,38.1,20.7,29.09,SSW,200,0.0,0.0,49,0.00,,SKC,0.00,VWS V14.00,2013-03-20 13:52:00,
2013-03-20 09:57:00,38.3,19.9,29.09,NE,37,0.0,0.0,47,0.00,,SKC,0.00,VWS V14.00,2013-03-20 13:57:00,
2013-03-20 10:02:00,39.2,20.2,29.09,NE,37,0.0,0.0,46,0.00,,SKC,0.00,VWS V14.00,2013-03-20 14:02:00,
2013-03-20 10:07:00,39.7,20.1,29.09,WSW,238,0.0,0.0,45,0.00,,SKC,0.00,VWS V14.00,2013-03-20 14:07:00,
2013-03-20 10:12:00,39.6,20.0,29.09,South,179,0.0,0.0,45,0.00,,SKC,0.00,VWS V14.00,2013-03-20 14:12:00,
2013-03-20 10:17:00,39.7,20.1,29.09,SSW,195,0.0,0.0,45,0.00,,SKC,0.00,VWS V14.00,2013-03-20 14:17:00,
2013-03-20 10:22:00,39.9,19.8,29.09,SSW,202,0.0,0.0,44,0.00,,SKC,0.00,VWS V14.00,2013-03-20 14:22:00,
2013-03-20 10:27:00,40.5,20.3,29.09,SW,229,0.0,0.0,44,0.00,,SKC,0.00,VWS V14.00,2013-03-20 14:27:00,
2013-03-20 10:32:00,40.8,20.6,29.06,South,191,0.0,3.1,44,0.00,,SKC,0.00,VWS V14.00,2013-03-20 14:32:00,
2013-03-20 10:37:00,41.0,20.2,29.06,South,184,0.0,3.1,43,0.00,,SKC,0.00,VWS V14.00,2013-03-20 14:37:00,
2013-03-20 10:42:00,41.4,20.0,29.06,SW,224,0.0,0.0,42,0.00,,SKC,0.00,VWS V14.00,2013-03-20 14:42:00,
2013-03-20 10:47:00,41.9,20.5,29.06,SSW,200,0.0,3.6,42,0.00,,SKC,0.00,VWS V14.00,2013-03-20 14:47:00,
2013-03-20 10:52:00,42.6,21.1,29.06,SE,144,0.0,0.0,42,0.00,,SKC,0.00,VWS V14.00,2013-03-20 14:52:00,
2013-03-20 10:57:00,43.0,20.3,29.06,East,91,0.0,0.0,40,0.00,,SKC,0.00,VWS V14.00,2013-03-20 14:57:00,
2013-03-20 11:02:00,43.5,20.8,29.06,SSW,211,3.2,4.0,40,0.00,,SKC,0.00,VWS V14.00,2013-03-20 15:02:00,
2013-03-20 11:07:00,43.7,21.0,29.06,SSW,204,5.9,5.9,40,0.00,,SKC,0.00,VWS V14.00,2013-03-20 15:07:00,
2013-03-20 11:12:00,43.9,21.1,29.06,South,184,0.0,3.1,40,0.00,,SKC,0.00,VWS V14.00,2013-03-20 15:12:00,
2013-03-20 11:17:00,44.2,21.5,29.06,NE,48,0.0,3.1,40,0.00,,SKC,0.00,VWS V14.00,2013-03-20 15:17:00,
2013-03-20 11:22:00,44.6,21.8,29.06,South,170,3.2,4.0,40,0.00,,SKC,0.00,VWS V14.00,2013-03-20 15:22:00,
2013-03-20 11:27:00,44.6,21.2,29.06,SSE,161,0.0,4.0,39,0.00,,SKC,0.00,VWS V14.00,2013-03-20 15:27:00,
2013-03-20 11:32:00,45.1,21.7,29.06,SSW,205,0.0,0.0,39,0.00,,SKC,0.00,VWS V14.00,2013-03-20 15:32:00,
2013-03-20 11:37:00,45.3,21.8,29.06,South,176,3.8,5.8,39,0.00,,SKC,0.00,VWS V14.00,2013-03-20 15:37:00,
2013-03-20 11:42:00,45.7,22.2,29.06,SSW,204,3.2,4.0,39,0.00,,SKC,0.00,VWS V14.00,2013-03-20 15:42:00,
2013-03-20 11:47:00,46.2,22.6,29.06,SW,231,3.8,5.4,39,0.00,,SKC,0.00,VWS V14.00,2013-03-20 15:47:00,
2013-03-20 11:52:00,46.8,22.5,29.06,SW,223,0.0,0.0,38,0.00,,SKC,0.00,VWS V14.00,2013-03-20 15:52:00,
2013-03-20 11:57:00,47.3,23.0,29.06,WSW,249,0.0,5.4,38,0.00,,SKC,0.00,VWS V14.00,2013-03-20 15:57:00,
2013-03-20 12:02:00,47.7,23.3,29.03,SSE,165,4.3,4.3,38,0.00,,SKC,0.00,VWS V14.00,2013-03-20 16:02:00,
2013-03-20 12:07:00,48.0,23.6,29.03,NW,317,0.0,6.3,38,0.00,,SKC,0.00,VWS V14.00,2013-03-20 16:07:00,
2013-03-20 12:12:00,48.7,23.6,29.03,NNW,336,0.0,4.0,37,0.00,,SKC,0.00,VWS V14.00,2013-03-20 16:12:00,
2013-03-20 12:17:00,49.1,24.0,29.03,South,171,3.8,5.8,37,0.00,,SKC,0.00,VWS V14.00,2013-03-20 16:17:00,
2013-03-20 12:23:00,49.5,24.3,29.03,WSW,237,4.3,5.8,37,0.00,,SKC,0.00,VWS V14.00,2013-03-20 16:23:00,
2013-03-20 12:28:00,50.2,24.3,29.03,NNW,331,4.8,6.3,36,0.00,,SKC,0.00,VWS V14.00,2013-03-20 16:28:00,
2013-03-20 12:33:00,50.4,24.4,29.03,SW,222,4.8,5.4,36,0.00,,SKC,0.00,VWS V14.00,2013-03-20 16:33:00,
2013-03-20 12:38:00,50.7,24.8,29.03,WSW,248,0.0,5.4,36,0.00,,SKC,0.00,VWS V14.00,2013-03-20 16:38:00,
2013-03-20 12:43:00,51.4,25.4,29.03,SE,141,2.7,4.0,36,0.00,,SKC,0.00,VWS V14.00,2013-03-20 16:43:00,
2013-03-20 12:48:00,51.8,25.7,29.03,SW,228,2.7,4.0,36,0.00,,SKC,0.00,VWS V14.00,2013-03-20 16:48:00,
2013-03-20 12:53:00,52.5,26.4,29.03,NW,308,4.3,5.8,36,0.00,,SKC,0.00,VWS V14.00,2013-03-20 16:53:00,
2013-03-20 12:58:00,52.5,24.3,29.03,NNW,331,0.0,5.8,33,0.00,,SKC,0.00,VWS V14.00,2013-03-20 16:58:00,
2013-03-20 13:03:00,52.9,26.0,29.00,SSW,201,0.0,6.3,35,0.00,,SKC,0.00,VWS V14.00,2013-03-20 17:03:00,
2013-03-20 13:08:00,52.9,23.9,29.00,NNW,329,4.3,6.3,32,0.00,,SKC,0.00,VWS V14.00,2013-03-20 17:08:00,
2013-03-20 13:13:00,52.3,23.4,29.00,SW,216,3.8,8.1,32,0.00,,SKC,0.00,VWS V14.00,2013-03-20 17:13:00,
2013-03-20 13:18:00,52.9,22.3,29.00,NW,319,4.3,8.1,30,0.00,,SKC,0.00,VWS V14.00,2013-03-20 17:18:00,
2013-03-20 13:23:00,52.9,23.1,29.00,NW,320,0.0,3.1,31,0.00,,SKC,0.00,VWS V14.00,2013-03-20 17:23:00,
2013-03-20 13:28:00,53.2,24.2,29.00,WNW,283,0.0,3.6,32,0.00,,SKC,0.00,VWS V14.00,2013-03-20 17:28:00,
2013-03-20 13:33:00,54.0,24.8,29.00,West,270,3.2,8.1,32,0.00,,SKC,0.00,VWS V14.00,2013-03-20 17:33:00,
2013-03-20 13:38:00,54.7,26.2,29.00,SSW,213,3.8,8.1,33,0.00,,SKC,0.00,VWS V14.00,2013-03-20 17:38:00,
2013-03-20 13:43:00,55.4,26.0,29.00,West,259,0.0,5.8,32,0.00,,SKC,0.00,VWS V14.00,2013-03-20 17:43:00,
2013-03-20 13:48:00,54.9,24.8,29.00,WNW,301,3.2,7.2,31,0.00,,SKC,0.00,VWS V14.00,2013-03-20 17:48:00,
2013-03-20 13:53:00,54.9,24.8,29.00,NW,311,3.8,3.8,31,0.00,,SKC,0.00,VWS V14.00,2013-03-20 17:53:00,
2013-03-20 13:58:00,55.4,24.5,29.00,WNW,302,0.0,5.8,30,0.00,,SKC,0.00,VWS V14.00,2013-03-20 17:58:00,
2013-03-20 14:03:00,55.6,24.7,28.97,WSW,244,0.0,6.7,30,0.00,,SKC,0.00,VWS V14.00,2013-03-20 18:03:00,
2013-03-20 14:08:00,56.3,26.1,28.97,SE,144,0.0,6.7,31,0.00,,SKC,0.00,VWS V14.00,2013-03-20 18:08:00,
2013-03-20 14:13:00,57.0,26.7,28.97,WSW,247,0.0,4.5,31,0.00,,SKC,0.00,VWS V14.00,2013-03-20 18:13:00,
2013-03-20 14:18:00,57.0,25.9,28.97,SW,232,0.0,5.8,30,0.00,,SKC,0.00,VWS V14.00,2013-03-20 18:18:00,
2013-03-20 14:23:00,57.7,27.3,28.97,WSW,239,6.4,6.4,31,0.00,,SKC,0.00,VWS V14.00,2013-03-20 18:23:00,
2013-03-20 14:28:00,57.7,26.5,28.97,SE,143,0.0,5.4,30,0.00,,SKC,0.00,VWS V14.00,2013-03-20 18:28:00,
2013-03-20 14:33:00,57.6,24.7,28.94,WNW,300,7.5,7.5,28,0.00,,SKC,0.00,VWS V14.00,2013-03-20 18:33:00,
2013-03-20 14:38:00,57.0,24.3,28.94,SW,233,0.0,6.7,28,0.00,,SKC,0.00,VWS V14.00,2013-03-20 18:38:00,
2013-03-20 14:43:00,57.0,25.1,28.94,NNW,331,4.8,6.3,29,0.00,,SKC,0.00,VWS V14.00,2013-03-20 18:43:00,
2013-03-20 14:48:00,57.4,24.6,28.94,WNW,303,3.2,6.3,28,0.00,,SKC,0.00,VWS V14.00,2013-03-20 18:48:00,
2013-03-20 14:53:00,57.0,23.4,28.94,NNW,327,0.0,3.6,27,0.00,,SKC,0.00,VWS V14.00,2013-03-20 18:53:00,
2013-03-20 14:58:00,57.6,24.7,28.94,WSW,239,4.3,5.8,28,0.00,,SKC,0.00,VWS V14.00,2013-03-20 18:58:00,
2013-03-20 15:03:00,57.9,24.2,28.94,WSW,253,3.2,8.7,27,0.00,,SKC,0.00,VWS V14.00,2013-03-20 19:03:00,
2013-03-20 15:08:00,57.7,24.0,28.94,NNE,12,4.3,8.7,27,0.00,,SKC,0.00,VWS V14.00,2013-03-20 19:08:00,
2013-03-20 15:13:00,57.6,23.9,28.94,SW,234,0.0,3.6,27,0.00,,SKC,0.00,VWS V14.00,2013-03-20 19:13:00,
2013-03-20 15:18:00,58.1,24.3,28.91,SSW,192,3.8,4.0,27,0.00,,SKC,0.00,VWS V14.00,2013-03-20 19:18:00,
2013-03-20 15:23:00,58.8,25.8,28.91,NNW,337,9.9,9.9,28,0.00,,SKC,0.00,VWS V14.00,2013-03-20 19:23:00,
2013-03-20 15:28:00,59.0,25.1,28.91,SSW,208,0.0,8.3,27,0.00,,SKC,0.00,VWS V14.00,2013-03-20 19:28:00,
2013-03-20 15:33:00,59.4,26.3,28.91,SW,223,7.5,7.5,28,0.00,,SKC,0.00,VWS V14.00,2013-03-20 19:33:00,
2013-03-20 15:38:00,59.4,25.4,28.91,SW,222,0.0,6.3,27,0.00,,SKC,0.00,VWS V14.00,2013-03-20 19:38:00,
2013-03-20 15:43:00,59.4,25.4,28.91,SW,219,0.0,5.4,27,0.00,,SKC,0.00,VWS V14.00,2013-03-20 19:43:00,
2013-03-20 15:48:00,59.2,25.2,28.91,SW,219,2.7,6.3,27,0.00,,SKC,0.00,VWS V14.00,2013-03-20 19:48:00,
2013-03-20 15:53:00,58.8,25.8,28.91,SSW,207,0.0,2.7,28,0.00,,SKC,0.00,VWS V14.00,2013-03-20 19:53:00,
2013-03-20 15:58:00,58.8,24.9,28.91,NW,320,0.0,4.0,27,0.00,,SKC,0.00,VWS V14.00,2013-03-20 19:58:00,
2013-03-20 16:03:00,59.2,25.2,28.88,NNW,332,3.8,4.9,27,0.00,,SKC,0.00,VWS V14.00,2013-03-20 20:03:00,
2013-03-20 16:08:00,58.8,24.9,28.88,WSW,242,4.8,4.9,27,0.00,,SKC,0.00,VWS V14.00,2013-03-20 20:08:00,
2013-03-20 16:13:00,58.5,24.6,28.88,NW,325,0.0,3.6,27,0.00,,SKC,0.00,VWS V14.00,2013-03-20 20:13:00,
2013-03-20 16:18:00,58.8,24.9,28.88,SW,230,4.3,8.1,27,0.00,,SKC,0.00,VWS V14.00,2013-03-20 20:18:00,
2013-03-20 16:23:00,59.2,24.3,28.88,SW,228,6.4,6.4,26,0.00,,SKC,0.00,VWS V14.00,2013-03-20 20:23:00,
2013-03-20 16:28:00,58.8,24.9,28.88,SSW,212,0.0,6.7,27,0.00,,SKC,0.00,VWS V14.00,2013-03-20 20:28:00,
2013-03-20 16:33:00,58.1,23.4,28.88,SW,229,3.8,8.1,26,0.00,,SKC,0.00,VWS V14.00,2013-03-20 20:33:00,
2013-03-20 16:38:00,57.2,23.5,28.88,SSW,210,3.8,8.1,27,0.00,,SKC,0.00,VWS V14.00,2013-03-20 20:38:00,
2013-03-20 16:43:00,57.2,23.5,28.88,NW,314,3.2,3.2,27,0.00,,SKC,0.00,VWS V14.00,2013-03-20 20:43:00,
2013-03-20 16:48:00,57.2,22.6,28.85,NW,314,7.0,8.1,26,0.00,,SKC,0.00,VWS V14.00,2013-03-20 20:48:00,
2013-03-20 16:53:00,57.0,22.5,28.85,NNW,338,5.9,6.3,26,0.00,,SKC,0.00,VWS V14.00,2013-03-20 20:53:00,
2013-03-20 16:58:00,56.8,22.3,28.85,WNW,302,0.0,7.6,26,0.00,,SKC,0.00,VWS V14.00,2013-03-20 20:58:00,
2013-03-20 17:03:00,57.0,23.4,28.85,WNW,300,0.0,6.3,27,0.00,,SKC,0.00,VWS V14.00,2013-03-20 21:03:00,
2013-03-20 17:08:00,57.4,22.8,28.85,West,269,2.7,6.3,26,0.00,,SKC,0.00,VWS V14.00,2013-03-20 21:08:00,
2013-03-20 17:13:00,57.6,23.0,28.85,SW,236,2.7,8.7,26,0.00,,SKC,0.00,VWS V14.00,2013-03-20 21:13:00,
2013-03-20 17:18:00,57.7,23.1,28.85,West,272,0.0,8.7,26,0.00,,SKC,0.00,VWS V14.00,2013-03-20 21:18:00,
2013-03-20 17:23:00,57.7,23.1,28.85,WSW,251,0.0,3.6,26,0.00,,SKC,0.00,VWS V14.00,2013-03-20 21:23:00,
2013-03-20 17:28:00,57.0,22.5,28.85,WSW,249,3.2,10.1,26,0.00,,SKC,0.00,VWS V14.00,2013-03-20 21:28:00,
2013-03-20 17:33:00,56.3,21.9,28.85,NNW,346,6.4,6.4,26,0.00,,SKC,0.00,VWS V14.00,2013-03-20 21:33:00,
2013-03-20 17:38:00,55.2,21.0,28.85,West,262,0.0,8.1,26,0.00,,SKC,0.00,VWS V14.00,2013-03-20 21:38:00,
2013-03-20 17:43:00,54.7,21.4,28.85,NW,310,0.0,4.5,27,0.00,,SKC,0.00,VWS V14.00,2013-03-20 21:43:00,
2013-03-20 17:48:00,54.5,20.3,28.85,WSW,243,0.0,7.2,26,0.00,,SKC,0.00,VWS V14.00,2013-03-20 21:48:00,
2013-03-20 17:53:00,54.1,20.0,28.85,NW,326,0.0,5.4,26,0.00,,SKC,0.00,VWS V14.00,2013-03-20 21:53:00,
2013-03-20 17:58:00,54.0,19.9,28.85,SW,224,3.2,5.4,26,0.00,,SKC,0.00,VWS V14.00,2013-03-20 21:58:00,
2013-03-20 18:04:00,54.0,20.8,28.82,NW,314,7.0,7.0,27,0.00,,SKC,0.00,VWS V14.00,2013-03-20 22:04:00,
2013-03-20 18:09:00,53.8,19.7,28.82,WSW,257,3.2,8.1,26,0.00,,SKC,0.00,VWS V14.00,2013-03-20 22:09:00,
2013-03-20 18:14:00,53.4,20.3,28.82,WNW,296,3.8,7.6,27,0.00,,SKC,0.00,VWS V14.00,2013-03-20 22:14:00,
2013-03-20 18:19:00,53.2,20.1,28.82,NW,323,9.9,9.9,27,0.00,,SKC,0.00,VWS V14.00,2013-03-20 22:19:00,
2013-03-20 18:24:00,52.5,19.5,28.82,NE,35,4.8,11.0,27,0.00,,SKC,0.00,VWS V14.00,2013-03-20 22:24:00,
2013-03-20 18:29:00,51.8,18.9,28.82,NNW,336,0.0,11.0,27,0.00,,SKC,0.00,VWS V14.00,2013-03-20 22:29:00,
2013-03-20 18:34:00,51.4,18.6,28.82,SW,229,3.8,8.1,27,0.00,,SKC,0.00,VWS V14.00,2013-03-20 22:34:00,
2013-03-20 18:39:00,51.4,18.6,28.82,WSW,240,0.0,8.1,27,0.00,,SKC,0.00,VWS V14.00,2013-03-20 22:39:00,
2013-03-20 18:44:00,51.3,18.4,28.82,SW,236,3.8,6.3,27,0.00,,SKC,0.00,VWS V14.00,2013-03-20 22:44:00,
2013-03-20 18:49:00,51.1,18.3,28.82,WSW,251,3.2,6.3,27,0.00,,SKC,0.00,VWS V14.00,2013-03-20 22:49:00,
2013-03-20 18:54:00,50.9,18.1,28.82,NW,304,3.8,6.3,27,0.00,,SKC,0.00,VWS V14.00,2013-03-20 22:54:00,
2013-03-20 18:59:00,50.9,18.1,28.82,West,260,0.0,8.3,27,0.00,,SKC,0.00,VWS V14.00,2013-03-20 22:59:00,
2013-03-20 19:04:00,50.7,18.0,28.82,NW,309,0.0,7.6,27,0.00,,SKC,0.00,VWS V14.00,2013-03-20 23:04:00,
2013-03-20 19:09:00,50.5,17.8,28.82,WSW,241,2.7,7.6,27,0.00,,SKC,0.00,VWS V14.00,2013-03-20 23:09:00,
2013-03-20 19:14:00,50.4,17.7,28.82,WSW,240,3.2,10.5,27,0.00,,SKC,0.00,VWS V14.00,2013-03-20 23:14:00,
2013-03-20 19:19:00,50.2,17.5,28.82,WSW,237,3.8,10.5,27,0.00,,SKC,0.00,VWS V14.00,2013-03-20 23:19:00,
2013-03-20 19:24:00,50.2,17.5,28.82,WSW,243,3.8,4.0,27,0.00,,SKC,0.00,VWS V14.00,2013-03-20 23:24:00,
2013-03-20 19:29:00,50.0,17.4,28.82,WSW,237,3.8,6.3,27,0.00,,SKC,0.00,VWS V14.00,2013-03-20 23:29:00,
2013-03-20 19:34:00,49.8,18.0,28.85,WSW,254,0.0,10.1,28,0.00,,SKC,0.00,VWS V14.00,2013-03-20 23:34:00,
2013-03-20 19:39:00,49.6,17.9,28.85,West,261,6.4,10.1,28,0.00,,SKC,0.00,VWS V14.00,2013-03-20 23:39:00,
2013-03-20 19:44:00,49.5,17.7,28.85,WSW,238,6.4,8.1,28,0.00,,SKC,0.00,VWS V14.00,2013-03-20 23:44:00,
2013-03-20 19:49:00,49.3,17.6,28.85,NNW,328,8.6,8.6,28,0.00,,SKC,0.00,VWS V14.00,2013-03-20 23:49:00,
2013-03-20 19:54:00,49.1,17.4,28.85,NNW,341,6.4,10.1,28,0.00,,SKC,0.00,VWS V14.00,2013-03-20 23:54:00,
2013-03-20 19:59:00,48.7,17.1,28.85,NW,322,4.8,10.5,28,0.00,,SKC,0.00,VWS V14.00,2013-03-20 23:59:00,
2013-03-20 20:04:00,48.2,17.5,28.85,NNW,345,3.2,6.3,29,0.00,,SKC,0.00,VWS V14.00,2013-03-21 00:04:00,
2013-03-20 20:09:00,47.7,17.8,28.85,NNW,335,6.4,8.3,30,0.00,,SKC,0.00,VWS V14.00,2013-03-21 00:09:00,
2013-03-20 20:14:00,47.3,18.2,28.85,North,357,7.0,8.7,31,0.00,,SKC,0.00,VWS V14.00,2013-03-21 00:14:00,
2013-03-20 20:19:00,46.8,19.2,28.88,WNW,302,7.5,8.7,33,0.00,,SKC,0.00,VWS V14.00,2013-03-21 00:19:00,
2013-03-20 20:24:00,46.2,20.1,28.88,West,270,7.5,8.3,35,0.00,,SKC,0.00,VWS V14.00,2013-03-21 00:24:00,
2013-03-20 20:29:00,45.5,20.8,28.88,WNW,288,3.8,10.5,37,0.00,,SKC,0.00,VWS V14.00,2013-03-21 00:29:00,
2013-03-20 20:34:00,44.8,20.1,28.88,NW,310,3.8,6.3,37,0.00,,SKC,0.00,VWS V14.00,2013-03-21 00:34:00,
2013-03-20 20:39:00,44.4,20.4,28.88,WSW,257,0.0,6.3,38,0.00,,SKC,0.00,VWS V14.00,2013-03-21 00:39:00,
2013-03-20 20:44:00,43.7,20.4,28.88,NW,306,3.8,7.6,39,0.00,,SKC,0.00,VWS V14.00,2013-03-21 00:44:00,
2013-03-20 20:49:00,43.3,20.6,28.91,NNW,334,3.2,7.6,40,0.00,,SKC,0.00,VWS V14.00,2013-03-21 00:49:00,
2013-03-20 20:54:00,43.2,20.5,28.91,NW,310,0.0,5.8,40,0.00,,SKC,0.00,VWS V14.00,2013-03-21 00:54:00,
2013-03-20 20:59:00,43.0,20.3,28.91,WNW,282,3.8,5.8,40,0.00,,SKC,0.00,VWS V14.00,2013-03-21 00:59:00,
2013-03-20 21:04:00,42.8,20.2,28.91,NW,319,3.8,6.7,40,0.00,,SKC,0.00,VWS V14.00,2013-03-21 01:04:00,
2013-03-20 21:09:00,42.6,20.6,28.91,WSW,256,4.8,8.1,41,0.00,,SKC,0.00,VWS V14.00,2013-03-21 01:09:00,
2013-03-20 21:14:00,42.4,21.0,28.91,WNW,289,3.8,4.9,42,0.00,,SKC,0.00,VWS V14.00,2013-03-21 01:14:00,
2013-03-20 21:19:00,42.4,21.0,28.91,NW,313,3.2,6.3,42,0.00,,SKC,0.00,VWS V14.00,2013-03-21 01:19:00,
2013-03-20 21:24:00,42.1,21.2,28.91,NW,322,7.0,7.0,43,0.00,,SKC,0.00,VWS V14.00,2013-03-21 01:24:00,
2013-03-20 21:29:00,41.9,21.0,28.91,SW,235,0.0,7.6,43,0.00,,SKC,0.00,VWS V14.00,2013-03-21 01:29:00,
2013-03-20 21:34:00,41.5,20.2,28.91,West,265,0.0,4.9,42,0.00,,SKC,0.00,VWS V14.00,2013-03-21 01:34:00,
2013-03-20 21:39:00,41.4,20.0,28.91,NW,322,0.0,5.4,42,0.00,,SKC,0.00,VWS V14.00,2013-03-21 01:39:00,
2013-03-20 21:44:00,41.2,20.4,28.91,NW,308,3.2,6.3,43,0.00,,SKC,0.00,VWS V14.00,2013-03-21 01:44:00,
2013-03-20 21:49:00,40.8,20.1,28.91,NW,305,0.0,6.3,43,0.00,,SKC,0.00,VWS V14.00,2013-03-21 01:49:00,
2013-03-20 21:54:00,40.8,20.1,28.91,NW,309,0.0,0.0,43,0.00,,SKC,0.00,VWS V14.00,2013-03-21 01:54:00,
2013-03-20 21:59:00,40.6,19.9,28.91,WNW,299,0.0,0.0,43,0.00,,SKC,0.00,VWS V14.00,2013-03-21 01:59:00,
2013-03-20 22:04:00,40.6,19.9,28.91,West,266,0.0,0.0,43,0.00,,SKC,0.00,VWS V14.00,2013-03-21 02:04:00,
2013-03-20 22:09:00,40.6,19.9,28.91,NW,321,0.0,0.0,43,0.00,,SKC,0.00,VWS V14.00,2013-03-21 02:09:00,
2013-03-20 22:14:00,40.6,19.9,28.91,SW,216,0.0,2.2,43,0.00,,SKC,0.00,VWS V14.00,2013-03-21 02:14:00,
2013-03-20 22:19:00,40.6,19.9,28.91,NW,308,0.0,2.2,43,0.00,,SKC,0.00,VWS V14.00,2013-03-21 02:19:00,
2013-03-20 22:24:00,40.5,19.7,28.91,SW,233,0.0,0.0,43,0.00,,SKC,0.00,VWS V14.00,2013-03-21 02:24:00,
2013-03-20 22:29:00,40.3,19.6,28.91,SW,225,3.8,3.8,43,0.00,,SKC,0.00,VWS V14.00,2013-03-21 02:29:00,
2013-03-20 22:34:00,40.3,19.6,28.91,SW,225,0.0,3.6,43,0.00,,SKC,0.00,VWS V14.00,2013-03-21 02:34:00,
2013-03-20 22:39:00,39.9,19.2,28.91,SW,219,0.0,3.6,43,0.00,,SKC,0.00,VWS V14.00,2013-03-21 02:39:00,
2013-03-20 22:44:00,39.9,19.2,28.91,NW,306,0.0,0.0,43,0.00,,SKC,0.00,VWS V14.00,2013-03-21 02:44:00,
2013-03-20 22:49:00,39.9,19.2,28.94,WSW,241,0.0,0.0,43,0.00,,SKC,0.00,VWS V14.00,2013-03-21 02:49:00,
2013-03-20 22:54:00,39.7,19.1,28.94,SW,214,0.0,0.0,43,0.00,,SKC,0.00,VWS V14.00,2013-03-21 02:54:00,
2013-03-20 22:59:00,39.6,18.9,28.94,West,260,0.0,3.1,43,0.00,,SKC,0.00,VWS V14.00,2013-03-21 02:59:00,
2013-03-20 23:04:00,39.4,18.8,28.94,SW,226,0.0,0.0,43,0.00,,SKC,0.00,VWS V14.00,2013-03-21 03:04:00,
2013-03-20 23:09:00,39.2,18.6,28.94,SW,218,0.0,0.0,43,0.00,,SKC,0.00,VWS V14.00,2013-03-21 03:09:00,
2013-03-20 23:14:00,38.8,18.8,28.94,West,263,0.0,0.0,44,0.00,,SKC,0.00,VWS V14.00,2013-03-21 03:14:00,
2013-03-20 23:20:00,38.7,18.6,28.94,WSW,245,0.0,0.0,44,0.00,,SKC,0.00,VWS V14.00,2013-03-21 03:20:00,
2013-03-20 23:25:00,38.7,18.6,28.94,WSW,239,0.0,0.0,44,0.00,,SKC,0.00,VWS V14.00,2013-03-21 03:25:00,
2013-03-20 23:30:00,38.7,18.6,28.94,SW,218,0.0,0.0,44,0.00,,SKC,0.00,VWS V14.00,2013-03-21 03:30:00,
2013-03-20 23:35:00,38.7,18.6,28.94,NNW,327,0.0,3.6,44,0.00,,SKC,0.00,VWS V14.00,2013-03-21 03:35:00,
2013-03-20 23:40:00,38.5,18.5,28.94,NW,309,0.0,3.6,44,0.00,,SKC,0.00,VWS V14.00,2013-03-21 03:40:00,
2013-03-20 23:45:00,38.1,18.1,28.94,WSW,242,0.0,2.7,44,0.00,,SKC,0.00,VWS V14.00,2013-03-21 03:45:00,
2013-03-20 23:50:00,37.9,18.0,28.94,NNW,329,3.8,4.5,44,0.00,,SKC,0.00,VWS V14.00,2013-03-21 03:50:00,
2013-03-20 23:55:00,37.9,18.0,28.94,SW,225,0.0,0.0,44,0.00,,SKC,0.00,VWS V14.00,2013-03-21 03:55:00,